[[{"header":{"parameterUnit":"m.s-1","parameterCategory":2,"la1":30.2991,"la2":30.254,"lo1":-89.0895,"lo2":-89.0444,"dy":0.0017,"dx":0.0017,"nx":28,"ny":28,"refTime":"2025-03-19T09:00:00:Z","depth":"0","parameterNumber":2,"parameterNumberName":"U-component_of_CURRENTS"},"data":[0,0,0,0,0,0,0,0,0,0,0,0,0,0,0,0,0,0,0,0,0,0,0,0,0,0,0,0,0,0,0,0,0,0,0,0,0,0,0,0,0,0,0,0,0,0,0,0,0,0,0,0,0,0,0,0,0,0,0.2882,0.2883,0,0.2895,0.2894,0.2894,0.2893,0.2893,0.2893,0.2893,0.29,0.29,0.29,0,0,0,0,0,0,0,0,0,0,0,0,0,0.2855,0.2855,0.2882,0.2883,0.2883,0.2895,0.2894,0.2894,0.2893,0.2893,0.2893,0.2893,0.29,0.29,0.29,0,0,0,0,0,0,0,0,0,0,0,0,0,0.2865,0.2855,0.2882,0.2886,0.2886,0.2895,0.2894,0.2894,0.2893,0.2893,0.2893,0.2893,0.29,0.29,0.29,0.29,0,0,0.2901,0.2901,0,0,0,0,0,0,0,0,0.2864,0.2865,0.2885,0.2885,0.2886,0.2895,0.2887,0.2897,0.2893,0.2888,0.2893,0.2893,0.2899,0.2899,0.2898,0.29,0.2901,0.2901,0.2901,0.2901,0.2901,0,0,0,0,0,0,0,0.2863,0.2865,0.2885,0.2885,0.2886,0.2886,0.2887,0.2889,0.2891,0.2888,0.2889,0.2894,0.2899,0.2898,0.2898,0.2901,0.2901,0.2901,0.2901,0.2901,0.2929,0.293,0,0,0,0,0,0,0.2867,0.2864,0.2884,0.2885,0.2878,0.2887,0.2888,0.289,0.2891,0.2892,0.2894,0.2894,0.2897,0.2898,0.2898,0.2924,0.2901,0.2901,0.2901,0.2929,0.293,0.293,0,0,0,0,0,0,0.2866,0.2869,0.2884,0.2877,0.2879,0.2887,0.2889,0.289,0.2893,0.2896,0.2896,0.2898,0.2897,0.2898,0.2906,0.2923,0.2901,0.2901,0.2928,0.2929,0.293,0.2958,0,0,0,0,0,0,0.2865,0.2868,0.2871,0.2877,0.288,0.2897,0.289,0.289,0.2898,0.2898,0.2899,0.2899,0.2897,0.2906,0.2906,0.2923,0.2901,0.2927,0.2928,0.293,0.2956,0.296,0.2963,0,0,0,0,0,0.2864,0.2872,0.2871,0.2874,0.2884,0.2897,0.2899,0.2902,0.2898,0.2904,0.2903,0.29,0.2914,0.2906,0.2907,0.2924,0.2927,0.2928,0.293,0.2955,0.2959,0.2963,0,0,0,0,0,0,0.2867,0.2873,0.2872,0.2883,0.2892,0.2898,0.2906,0.2905,0.2908,0.2908,0.2904,0.2905,0.2921,0.2916,0.2908,0.2936,0.2921,0.2923,0.294,0.2944,0.2948,0.297,0.2902,0,0,0,0,0,0.2868,0.2873,0.2881,0.2891,0.2895,0.2899,0.2905,0.2908,0.2913,0.2914,0.2913,0.2916,0.2927,0.293,0.2936,0.2947,0.2965,0.2959,0.2962,0.2965,0.2984,0.3022,0.3031,0.2935,0.2935,0.2935,0,0,0.2872,0.2877,0.288,0.2891,0.2897,0.2911,0.2902,0.2915,0.2928,0.2914,0.2927,0.2928,0.2932,0.2949,0.2955,0.2947,0.3001,0.2967,0.2969,0.2987,0.3025,0.3034,0.3043,0.2936,0.2936,0.2936,0,0,0.289,0.2886,0.29,0.2907,0.2921,0.2923,0.2928,0.2935,0.2938,0.2949,0.2948,0.2962,0.2963,0.2979,0.2985,0.301,0.3018,0.3007,0.304,0.3077,0.3085,0.3093,0.3125,0.3135,0.3006,0.3006,0.3006,0,0.2898,0.2914,0.2907,0.2925,0.2937,0.293,0.2952,0.2954,0.2962,0.2976,0.2957,0.2987,0.2984,0.3024,0.303,0.3021,0.3039,0.3023,0.3082,0.309,0.3098,0.3129,0.314,0.3008,0.3008,0.3008,0.3007,0,0.2929,0.2941,0.2951,0.2967,0.2976,0.2994,0.2998,0.3007,0.3004,0.3011,0.3043,0.3039,0.3064,0.3059,0.305,0.3104,0.31,0.3083,0.3074,0.311,0.3139,0.3151,0.301,0.3009,0.3009,0.3009,0,0,0.295,0.2971,0.2974,0.2991,0.3002,0.3016,0.3035,0.3062,0.3093,0.3085,0.313,0.3134,0.3136,0.3145,0.3139,0.3162,0.322,0.3145,0.3146,0.3181,0.3304,0.3359,0.3376,0.3213,0.3216,0.3217,0.3303,0,0.2981,0.302,0.3021,0.3058,0.3079,0.308,0.3106,0.3125,0.3136,0.3173,0.3175,0.3211,0.3167,0.3189,0.3205,0.3227,0.3252,0.3199,0.3262,0.3265,0.3312,0.3392,0.348,0.3569,0.3313,0.3315,0.3317,0,0.3011,0.3034,0.3076,0.3114,0.3125,0.3146,0.3193,0.3216,0.3257,0.3273,0.3299,0.3301,0.3343,0.3295,0.335,0.3319,0.3319,0.3322,0.3325,0.3379,0.3342,0.3493,0.3599,0.3638,0.3334,0.3332,0.3331,0,0.3028,0.3071,0.3107,0.3118,0.3159,0.3184,0.3208,0.3249,0.3291,0.3343,0.3391,0.3414,0.3457,0.3455,0.3456,0.341,0.352,0.3456,0.3504,0.3506,0.3599,0.3607,0.3759,0.3501,0.3501,0.3501,0.35,0,0.3056,0.3084,0.312,0.3139,0.3195,0.3213,0.3278,0.3308,0.3377,0.3433,0.3449,0.3507,0.3501,0.3549,0.3514,0.3572,0.3571,0.3546,0.355,0.361,0.3617,0.3668,0.3667,0.3504,0.3503,0.3503,0.3502,0,0.3067,0.3087,0.3132,0.3183,0.3201,0.324,0.3316,0.3363,0.3436,0.3515,0.3541,0.3614,0.3681,0.3687,0.3712,0.3682,0.3679,0.3713,0.3787,0.3798,0.3858,0.3855,0.3731,0.3638,0.3782,0.3784,0.3786,0,0.3078,0.3101,0.3158,0.3181,0.3204,0.3262,0.33,0.3377,0.3434,0.3565,0.3609,0.372,0.3797,0.3898,0.3896,0.3915,0.3776,0.3964,0.389,0.3921,0.3919,0.364,0.3548,0.4015,0.4019,0.4021,0.4024,0,0.3093,0.311,0.3137,0.3185,0.3223,0.3277,0.3342,0.3396,0.3483,0.3585,0.3705,0.3792,0.3947,0.4034,0.4093,0.4092,0.3912,0.4022,0.405,0.4135,0.3848,0.3743,0.3882,0.405,0.4047,0.4045,0.4044,0.4043,0.309,0.3096,0.3118,0.3155,0.3212,0.3254,0.3264,0.3355,0.3449,0.356,0.3706,0.3859,0.4135,0.4262,0.4216,0.4323,0.4076,0.4294,0.4292,0.4004,0.3909,0.4107,0.4274,0.4273,0.4272,0.4271,0.427,0,0.3025,0.3027,0.3078,0.3094,0.314,0.3191,0.3252,0.3254,0.3314,0.3542,0.3672,0.4037,0.4268,0.4423,0.4672,0.4646,0.434,0.4579,0.4267,0.4161,0.4408,0.4424,0.4638,0.4638,0.4638,0.4638,0.4638,0.4638,0.2982,0.2941,0.2949,0.2978,0.303,0.3028,0.3041,0.3076,0.322,0.3425,0.3643,0.3839,0.436,0.4897,0.5065,0.4953,0.4634,0.4498,0.432,0.4653,0.4625,0.4598,0.4614,0.4865,0.4865,0.3949,0.3944,0.394]},{"header":{"parameterUnit":"m.s-1","parameterCategory":2,"la1":30.2991,"la2":30.254,"lo1":-89.0895,"lo2":-89.0444,"dy":0.0017,"dx":0.0017,"nx":28,"ny":28,"refTime":"2025-03-19T09:00:00:Z","depth":"0","parameterNumber":3,"parameterNumberName":"V-component_of_CURRENTS"},"data":[0,0,0,0,0,0,0,0,0,0,0,0,0,0,0,0,0,0,0,0,0,0,0,0,0,0,0,0,0,0,0,0,0,0,0,0,0,0,0,0,0,0,0,0,0,0,0,0,0,0,0,0,0,0,0,0,0,0,-0.0249,-0.0249,0,-0.0264,-0.0264,-0.0264,-0.0304,-0.0304,-0.0305,-0.0306,-0.0362,-0.0363,-0.0364,0,0,0,0,0,0,0,0,0,0,0,0,0,-0.0291,-0.0289,-0.0249,-0.0249,-0.0249,-0.0264,-0.0264,-0.0264,-0.0304,-0.0304,-0.0305,-0.0306,-0.0362,-0.0363,-0.0364,0,0,0,0,0,0,0,0,0,0,0,0,0,-0.0287,-0.0289,-0.0249,-0.027,-0.0271,-0.0264,-0.0264,-0.0264,-0.0303,-0.0304,-0.0306,-0.0307,-0.0362,-0.0363,-0.0364,-0.035,0,0,-0.0368,-0.0369,0,0,0,0,0,0,0,0,-0.0287,-0.0285,-0.0266,-0.0268,-0.027,-0.0282,-0.0299,-0.0295,-0.0303,-0.0293,-0.0306,-0.0307,-0.0338,-0.0341,-0.0343,-0.0353,-0.0355,-0.0368,-0.0369,-0.0369,-0.037,0,0,0,0,0,0,0,-0.0287,-0.0285,-0.0256,-0.0266,-0.0269,-0.029,-0.0291,-0.0299,-0.0311,-0.0294,-0.0296,-0.0295,-0.0339,-0.0341,-0.0344,-0.0356,-0.0368,-0.0369,-0.037,-0.0371,-0.037,-0.0369,0,0,0,0,0,0,-0.0279,-0.0285,-0.0256,-0.0256,-0.028,-0.0288,-0.0289,-0.0278,-0.031,-0.0315,-0.0294,-0.0297,-0.0339,-0.0343,-0.0346,-0.0331,-0.0369,-0.0371,-0.0371,-0.0371,-0.037,-0.0369,0,0,0,0,0,0,-0.028,-0.0276,-0.0255,-0.0271,-0.027,-0.0286,-0.0274,-0.0278,-0.0282,-0.031,-0.0316,-0.0295,-0.034,-0.0345,-0.035,-0.0334,-0.0371,-0.0372,-0.0372,-0.0371,-0.037,-0.0301,0,0,0,0,0,0,-0.0281,-0.0276,-0.0266,-0.027,-0.0268,-0.0242,-0.0273,-0.0277,-0.0279,-0.0283,-0.0312,-0.0318,-0.0341,-0.0348,-0.0351,-0.0336,-0.0373,-0.0373,-0.0371,-0.037,-0.0304,-0.0298,-0.0292,0,0,0,0,0,-0.0282,-0.0259,-0.0266,-0.0262,-0.0254,-0.0241,-0.0241,-0.0259,-0.0278,-0.0269,-0.0292,-0.0317,-0.0342,-0.0348,-0.0352,-0.0337,-0.0373,-0.0372,-0.037,-0.0307,-0.0299,-0.0292,0,0,0,0,0,0,-0.0273,-0.0261,-0.0268,-0.0243,-0.024,-0.0247,-0.0239,-0.0253,-0.0263,-0.027,-0.0304,-0.0311,-0.0312,-0.0332,-0.0338,-0.0334,-0.0363,-0.0362,-0.0313,-0.0306,-0.03,-0.0288,-0.0374,0,0,0,0,0,-0.0264,-0.0245,-0.0241,-0.0223,-0.0217,-0.0228,-0.0227,-0.0236,-0.0245,-0.0251,-0.0271,-0.0293,-0.0306,-0.0312,-0.0327,-0.0319,-0.0349,-0.0314,-0.0308,-0.0302,-0.0295,-0.0324,-0.032,-0.0364,-0.0364,-0.0364,0,0,-0.0258,-0.0248,-0.0239,-0.022,-0.022,-0.0197,-0.023,-0.0218,-0.0205,-0.0254,-0.0245,-0.0272,-0.03,-0.0295,-0.0297,-0.031,-0.0306,-0.03,-0.0295,-0.0291,-0.0322,-0.0318,-0.0314,-0.0362,-0.0363,-0.0363,0,0,-0.0227,-0.0222,-0.0194,-0.0183,-0.0173,-0.0174,-0.0168,-0.0169,-0.0175,-0.0168,-0.0203,-0.0219,-0.0234,-0.0251,-0.0262,-0.023,-0.0275,-0.0236,-0.0192,-0.022,-0.0217,-0.0214,-0.0249,-0.025,-0.0231,-0.023,-0.023,0,-0.0221,-0.0181,-0.0185,-0.0153,-0.0139,-0.0159,-0.0125,-0.0127,-0.0133,-0.0131,-0.0157,-0.0184,-0.0212,-0.0208,-0.0201,-0.0215,-0.0242,-0.0217,-0.0212,-0.021,-0.0209,-0.0245,-0.0247,-0.0227,-0.0227,-0.0228,-0.0228,0,-0.0166,-0.0137,-0.0117,-0.0082,-0.0067,-0.0041,-0.004,-0.0033,-0.0048,-0.0056,-0.006,-0.0102,-0.0119,-0.0132,-0.0158,-0.0156,-0.0182,-0.0203,-0.0229,-0.02,-0.024,-0.0244,-0.0222,-0.0223,-0.0224,-0.0225,0,0,-0.0141,-0.0089,-0.008,-0.0054,-0.0027,-0.0006,0.0021,0.0042,0.0067,0.0035,0.0054,0.0014,-0.0019,-0.0034,-0.0073,-0.01,-0.012,-0.0142,-0.0145,-0.0174,-0.0187,-0.0219,-0.0226,-0.0141,-0.0141,-0.0141,-0.022,0,-0.0096,-0.0022,-0.001,0.0054,0.0092,0.0088,0.012,0.0131,0.0131,0.0146,0.0089,0.0088,0.0023,0.0015,-0.0023,-0.0089,-0.0126,-0.0097,-0.0213,-0.0217,-0.0246,-0.023,-0.0217,-0.0287,-0.0224,-0.0225,-0.0225,0,-0.0038,0.0003,0.0078,0.013,0.0147,0.018,0.023,0.0255,0.0264,0.0259,0.0238,0.0196,0.0153,0.0091,-0.0019,0.0002,-0.0087,-0.015,-0.0155,-0.0209,-0.0254,-0.0307,-0.0297,-0.0544,-0.0231,-0.023,-0.023,0,-0.0003,0.0065,0.0128,0.0148,0.0205,0.0234,0.026,0.0292,0.0338,0.0333,0.0364,0.0287,0.0268,0.0146,0.0006,-0.0005,-0.012,-0.0153,-0.027,-0.0274,-0.0298,-0.0304,-0.0538,-0.0238,-0.0238,-0.0238,-0.0238,0,0.0051,0.0098,0.015,0.0188,0.0267,0.028,0.0365,0.0381,0.0429,0.0502,0.0425,0.0465,0.0282,0.0196,0.0043,-0.012,-0.0098,-0.0259,-0.0293,-0.0275,-0.0277,-0.0522,-0.0688,-0.0241,-0.024,-0.024,-0.0239,0,0.0094,0.0124,0.0203,0.0268,0.0294,0.0353,0.0448,0.0517,0.054,0.0634,0.0637,0.0601,0.0488,0.0293,0.0101,-0.0053,-0.037,-0.0289,-0.0261,-0.029,-0.0628,-0.079,-0.1012,-0.1175,-0.0426,-0.0428,-0.0429,0,0.0121,0.0169,0.0269,0.0331,0.0369,0.0453,0.0528,0.0573,0.0664,0.0733,0.0798,0.0716,0.0711,0.0409,0.0095,-0.019,-0.0419,-0.0377,-0.0402,-0.0649,-0.0854,-0.0909,-0.1036,-0.0412,-0.0413,-0.0413,-0.0414,0,0.0182,0.0223,0.0301,0.043,0.052,0.0619,0.0727,0.082,0.0887,0.0987,0.1098,0.1096,0.0792,0.0528,0.0102,-0.0113,-0.0578,-0.04,-0.0661,-0.0871,-0.0941,-0.1111,-0.0372,-0.042,-0.0419,-0.0419,-0.0418,-0.0418,0.0235,0.0317,0.0431,0.0556,0.0655,0.0791,0.0897,0.1045,0.1215,0.1416,0.1356,0.146,0.0977,0.0417,0.0029,-0.0634,-0.0652,-0.0805,-0.0982,-0.1013,-0.1177,-0.0455,-0.0538,-0.0538,-0.0538,-0.0538,-0.0539,0,0.0334,0.043,0.055,0.0706,0.082,0.0851,0.1044,0.1196,0.144,0.1665,0.1791,0.165,0.1054,0.0412,-0.0498,-0.1058,-0.1269,-0.1388,-0.1486,-0.1594,-0.0946,-0.0953,-0.1123,-0.1123,-0.1123,-0.1122,-0.1122,-0.1122,0.039,0.056,0.0637,0.0838,0.0923,0.1097,0.1215,0.1485,0.1715,0.2066,0.22,0.2203,0.1707,0.0006,-0.1187,-0.1536,-0.2019,-0.211,-0.2362,-0.1943,-0.1902,-0.1862,-0.1906,-0.2273,-0.2274,-0.2892,-0.2899,-0.2905]}],[{"header":{"parameterUnit":"m.s-1","parameterCategory":2,"la1":30.2991,"la2":30.254,"lo1":-89.0895,"lo2":-89.0444,"dy":0.0017,"dx":0.0017,"nx":28,"ny":28,"refTime":"2025-03-19T09:00:00:Z","depth":"2","parameterNumber":2,"parameterNumberName":"U-component_of_CURRENTS"},"data":[0,0,0,0,0,0,0,0,0,0,0,0,0,0,0,0,0,0,0,0,0,0,0,0,0,0,0,0,0,0,0,0,0,0,0,0,0,0,0,0,0,0,0,0,0,0,0,0,0,0,0,0,0,0,0,0,0,0,0.284,0.284,0,0.2852,0.2851,0.2851,0.2851,0.2851,0.2851,0.2851,0.2859,0.2859,0.2859,0,0,0,0,0,0,0,0,0,0,0,0,0,0.2817,0.2817,0.284,0.284,0.284,0.2852,0.2851,0.2851,0.2851,0.2851,0.2851,0.2851,0.2859,0.2859,0.2859,0,0,0,0,0,0,0,0,0,0,0,0,0,0.2825,0.2817,0.284,0.2843,0.2844,0.2852,0.2851,0.2851,0.2851,0.2851,0.2851,0.2851,0.2859,0.2859,0.2859,0.2859,0,0,0.286,0.286,0,0,0,0,0,0,0,0,0.2825,0.2826,0.2842,0.2843,0.2844,0.2852,0.2847,0.2855,0.2851,0.2845,0.2851,0.2851,0.2858,0.2858,0.2857,0.286,0.286,0.286,0.286,0.286,0.286,0,0,0,0,0,0,0,0.2824,0.2825,0.2842,0.2843,0.2844,0.2845,0.2846,0.2848,0.2849,0.2846,0.2846,0.2852,0.2858,0.2856,0.2857,0.286,0.286,0.286,0.286,0.2861,0.2888,0.2889,0,0,0,0,0,0,0.2828,0.2825,0.2842,0.2842,0.2837,0.2845,0.2846,0.2847,0.2849,0.285,0.2852,0.2852,0.2856,0.2857,0.2857,0.2884,0.286,0.2861,0.2861,0.2888,0.2889,0.2889,0,0,0,0,0,0,0.2827,0.2829,0.2841,0.2836,0.2838,0.2846,0.2847,0.2847,0.2851,0.2854,0.2855,0.2856,0.2856,0.2857,0.2865,0.2883,0.2861,0.2861,0.2887,0.2888,0.2889,0.292,0,0,0,0,0,0,0.2826,0.2828,0.2831,0.2836,0.2839,0.2854,0.2847,0.2848,0.2855,0.2856,0.2858,0.2858,0.2856,0.2865,0.2866,0.2883,0.2861,0.2886,0.2888,0.2889,0.2918,0.2922,0.2925,0,0,0,0,0,0.2825,0.2833,0.2831,0.2834,0.2842,0.2855,0.2856,0.286,0.2856,0.2862,0.2861,0.2858,0.2873,0.2866,0.2866,0.2884,0.2886,0.2887,0.2889,0.2916,0.2921,0.2925,0,0,0,0,0,0,0.283,0.2834,0.2832,0.2842,0.2851,0.2856,0.2864,0.2863,0.2867,0.2867,0.2863,0.2864,0.2881,0.2876,0.2868,0.2895,0.288,0.2882,0.2901,0.2905,0.2909,0.2931,0.2861,0,0,0,0,0,0.2831,0.2834,0.2842,0.2851,0.2855,0.2858,0.2864,0.2867,0.2872,0.2873,0.2872,0.2875,0.2886,0.2889,0.2895,0.2906,0.2924,0.2919,0.2922,0.2925,0.2944,0.2981,0.299,0.2894,0.2894,0.2894,0,0,0.2835,0.2839,0.2842,0.2851,0.2857,0.2871,0.2862,0.2875,0.2888,0.2874,0.2887,0.2888,0.2892,0.2908,0.2915,0.2906,0.2961,0.2927,0.2929,0.2947,0.2984,0.2993,0.3002,0.2894,0.2894,0.2894,0,0,0.2855,0.285,0.2863,0.287,0.2883,0.2884,0.289,0.2896,0.29,0.291,0.2909,0.2923,0.2924,0.2939,0.2945,0.2971,0.2979,0.2966,0.3001,0.3037,0.3046,0.3053,0.3085,0.3096,0.2966,0.2966,0.2966,0,0.2864,0.2879,0.2871,0.2888,0.29,0.2892,0.2915,0.2916,0.2924,0.2938,0.292,0.2949,0.2945,0.2985,0.2991,0.2981,0.3,0.2984,0.3043,0.3051,0.3058,0.3089,0.3101,0.2968,0.2968,0.2968,0.2967,0,0.2896,0.2908,0.2917,0.2932,0.2941,0.2959,0.2962,0.2972,0.2968,0.2975,0.3007,0.3003,0.3027,0.3022,0.3012,0.3066,0.3061,0.3044,0.3035,0.307,0.31,0.3111,0.297,0.297,0.2969,0.2969,0,0,0.2919,0.2938,0.2941,0.2958,0.2968,0.2982,0.3001,0.3027,0.3058,0.305,0.3095,0.3099,0.3101,0.3109,0.3102,0.3125,0.3184,0.3108,0.3109,0.3144,0.3267,0.332,0.3337,0.3176,0.3178,0.318,0.3265,0,0.2951,0.299,0.299,0.3027,0.3047,0.3047,0.3073,0.3091,0.3102,0.3139,0.314,0.3176,0.3132,0.3153,0.3169,0.319,0.3215,0.3163,0.3224,0.3226,0.3273,0.3353,0.2949,0.2997,0.3276,0.3278,0.3279,0,0.2983,0.3005,0.3047,0.3084,0.3095,0.3115,0.3161,0.3184,0.3223,0.324,0.3266,0.3267,0.3308,0.326,0.3314,0.3283,0.3283,0.3285,0.3288,0.3341,0.3302,0.3007,0.3007,0.3298,0.3296,0.3295,0.3294,0,0.3002,0.3044,0.308,0.3091,0.313,0.3155,0.3178,0.3217,0.326,0.3311,0.3358,0.338,0.3422,0.342,0.342,0.3374,0.3483,0.3418,0.3465,0.3467,0.314,0.3113,0.3463,0.3463,0.3463,0.3463,0.3462,0,0.3031,0.3059,0.3094,0.3113,0.3169,0.3185,0.325,0.3279,0.3347,0.3402,0.3416,0.3473,0.3467,0.3513,0.3478,0.3535,0.3534,0.3508,0.3511,0.3142,0.3115,0.3382,0.3372,0.3466,0.3465,0.3464,0.3464,0,0.3044,0.3064,0.3109,0.3158,0.3176,0.3215,0.3289,0.3336,0.3407,0.3484,0.351,0.358,0.3646,0.365,0.3674,0.3644,0.3663,0.3674,0.3257,0.3213,0.3599,0.3589,0.3736,0.3739,0.3741,0.3743,0.3745,0,0.3055,0.3079,0.3135,0.3157,0.318,0.3238,0.3275,0.3351,0.3406,0.3534,0.3577,0.3685,0.3733,0.3832,0.3694,0.3672,0.3772,0.3412,0.327,0.3648,0.3636,0.3621,0.3608,0.2817,0.2811,0.2806,0.2802,0,0.307,0.3088,0.3114,0.3161,0.3199,0.3254,0.3317,0.3371,0.3456,0.3519,0.3635,0.3695,0.373,0.3526,0.3531,0.3459,0.3383,0.3326,0.38,0.2863,0.2804,0.2785,0.2797,0.2759,0.2763,0.2766,0.2769,0.277,0.3067,0.3071,0.3092,0.3128,0.3188,0.3231,0.3241,0.3196,0.3238,0.3172,0.3457,0.3359,0.3376,0.3137,0.3054,0.2959,0.3191,0.3062,0.3065,0.3076,0.3008,0.2962,0.2932,0.2937,0.2941,0.2945,0.2949,0,0.297,0.2997,0.3047,0.3064,0.3012,0.3167,0.3228,0.3039,0.2881,0.2893,0.2866,0.2648,0.2536,0.2598,0.2323,0.2387,0.222,0.238,0.2088,0.2135,0.2176,0.205,0.1725,0.1722,0.1719,0.1716,0,0,0.2916,0.2857,0.2861,0.2793,0.2876,0.2704,0.2712,0.2491,0.2361,0.2125,0.2067,0.2201,0.2451,0.1987,0.1966,0.181,0.1946,0.1738,0.2706,0.2401,0.2437,0.2554,0.2416,0,0,0,0,0]},{"header":{"parameterUnit":"m.s-1","parameterCategory":2,"la1":30.2991,"la2":30.254,"lo1":-89.0895,"lo2":-89.0444,"dy":0.0017,"dx":0.0017,"nx":28,"ny":28,"refTime":"2025-03-19T09:00:00:Z","depth":"2","parameterNumber":3,"parameterNumberName":"V-component_of_CURRENTS"},"data":[0,0,0,0,0,0,0,0,0,0,0,0,0,0,0,0,0,0,0,0,0,0,0,0,0,0,0,0,0,0,0,0,0,0,0,0,0,0,0,0,0,0,0,0,0,0,0,0,0,0,0,0,0,0,0,0,0,0,-0.0213,-0.0213,0,-0.0228,-0.0228,-0.0228,-0.0268,-0.0269,-0.027,-0.027,-0.0327,-0.0328,-0.0329,0,0,0,0,0,0,0,0,0,0,0,0,0,-0.0257,-0.0256,-0.0213,-0.0213,-0.0213,-0.0228,-0.0228,-0.0228,-0.0268,-0.0269,-0.027,-0.0271,-0.0327,-0.0328,-0.0329,0,0,0,0,0,0,0,0,0,0,0,0,0,-0.0252,-0.0255,-0.0213,-0.0234,-0.0236,-0.0228,-0.0228,-0.0229,-0.0268,-0.0269,-0.027,-0.0271,-0.0327,-0.0328,-0.0329,-0.0315,0,0,-0.0333,-0.0334,0,0,0,0,0,0,0,0,-0.0253,-0.0251,-0.0231,-0.0232,-0.0234,-0.0246,-0.0264,-0.0259,-0.0267,-0.0257,-0.027,-0.0272,-0.0303,-0.0306,-0.0307,-0.0317,-0.032,-0.0333,-0.0334,-0.0334,-0.0335,0,0,0,0,0,0,0,-0.0253,-0.0251,-0.022,-0.0231,-0.0233,-0.0255,-0.0256,-0.0264,-0.0275,-0.0258,-0.026,-0.026,-0.0304,-0.0306,-0.0309,-0.0321,-0.0333,-0.0334,-0.0335,-0.0335,-0.0335,-0.0334,0,0,0,0,0,0,-0.0245,-0.025,-0.022,-0.0221,-0.0245,-0.0253,-0.0254,-0.0242,-0.0274,-0.0279,-0.0259,-0.0262,-0.0303,-0.0308,-0.0311,-0.0297,-0.0334,-0.0336,-0.0336,-0.0335,-0.0334,-0.0334,0,0,0,0,0,0,-0.0246,-0.0241,-0.0219,-0.0236,-0.0234,-0.0251,-0.0238,-0.0242,-0.0246,-0.0274,-0.0281,-0.0259,-0.0304,-0.031,-0.0315,-0.0299,-0.0336,-0.0337,-0.0336,-0.0335,-0.0334,-0.0267,0,0,0,0,0,0,-0.0246,-0.0241,-0.0232,-0.0235,-0.0233,-0.0206,-0.0237,-0.0241,-0.0244,-0.0247,-0.0277,-0.0283,-0.0306,-0.0313,-0.0316,-0.0302,-0.0338,-0.0337,-0.0336,-0.0334,-0.027,-0.0264,-0.0258,0,0,0,0,0,-0.0248,-0.0224,-0.0231,-0.0228,-0.0218,-0.0205,-0.0206,-0.0224,-0.0242,-0.0234,-0.0257,-0.0282,-0.0306,-0.0313,-0.0317,-0.0303,-0.0338,-0.0336,-0.0335,-0.0273,-0.0265,-0.0259,0,0,0,0,0,0,-0.024,-0.0226,-0.0234,-0.0208,-0.0205,-0.0211,-0.0204,-0.0218,-0.0229,-0.0236,-0.0269,-0.0276,-0.0277,-0.0296,-0.0303,-0.0299,-0.0327,-0.0326,-0.0279,-0.0272,-0.0266,-0.0254,-0.0339,0,0,0,0,0,-0.0231,-0.0212,-0.0207,-0.0188,-0.0182,-0.0194,-0.0192,-0.0201,-0.021,-0.0217,-0.0237,-0.0258,-0.0271,-0.0277,-0.0292,-0.0284,-0.0314,-0.0279,-0.0273,-0.0268,-0.026,-0.0289,-0.0285,-0.0328,-0.0328,-0.0328,0,0,-0.0225,-0.0214,-0.0205,-0.0185,-0.0185,-0.0162,-0.0196,-0.0184,-0.0171,-0.022,-0.0211,-0.0238,-0.0265,-0.026,-0.0262,-0.0275,-0.0272,-0.0265,-0.0261,-0.0256,-0.0287,-0.0283,-0.0279,-0.0327,-0.0327,-0.0327,0,0,-0.0195,-0.0189,-0.0161,-0.015,-0.014,-0.014,-0.0134,-0.0135,-0.0142,-0.0135,-0.017,-0.0186,-0.0201,-0.0217,-0.0228,-0.0196,-0.024,-0.0202,-0.0158,-0.0186,-0.0183,-0.0181,-0.0215,-0.0217,-0.0196,-0.0196,-0.0196,0,-0.019,-0.0149,-0.0152,-0.012,-0.0106,-0.0126,-0.0092,-0.0094,-0.01,-0.0098,-0.0124,-0.0151,-0.0179,-0.0174,-0.0167,-0.0182,-0.0208,-0.0183,-0.0178,-0.0176,-0.0175,-0.0212,-0.0214,-0.0193,-0.0193,-0.0194,-0.0194,0,-0.0135,-0.0106,-0.0086,-0.005,-0.0036,-0.001,-0.0008,-0.0001,-0.0017,-0.0024,-0.0029,-0.007,-0.0087,-0.0099,-0.0125,-0.0123,-0.0149,-0.0169,-0.0196,-0.0167,-0.0207,-0.0211,-0.0188,-0.0189,-0.019,-0.0191,0,0,-0.0112,-0.0058,-0.005,-0.0023,0.0004,0.0025,0.0052,0.0073,0.0098,0.0066,0.0085,0.0045,0.0013,-0.0002,-0.0041,-0.0068,-0.0089,-0.0109,-0.0112,-0.0142,-0.0156,-0.0188,-0.0195,-0.0109,-0.0109,-0.0109,-0.0189,0,-0.0068,0.0006,0.002,0.0084,0.0122,0.0118,0.015,0.0161,0.0162,0.0176,0.012,0.0119,0.0054,0.0046,0.0008,-0.0057,-0.0094,-0.0066,-0.0181,-0.0184,-0.0215,-0.0199,-0.0145,-0.0212,-0.0193,-0.0194,-0.0194,0,-0.0011,0.0031,0.0106,0.0159,0.0176,0.0209,0.0259,0.0284,0.0294,0.0289,0.0268,0.0227,0.0183,0.0121,0.0011,0.0033,-0.0056,-0.0119,-0.0124,-0.0178,-0.0222,-0.0238,-0.022,-0.0201,-0.02,-0.02,-0.0199,0,0.0023,0.0092,0.0155,0.0175,0.0233,0.0262,0.0289,0.0321,0.0367,0.0363,0.0393,0.0317,0.0298,0.0176,0.0036,0.0025,-0.009,-0.0123,-0.024,-0.0244,-0.0232,-0.0235,-0.0208,-0.0207,-0.0207,-0.0207,-0.0207,0,0.0077,0.0124,0.0177,0.0215,0.0294,0.0307,0.0393,0.0409,0.0458,0.0531,0.0454,0.0494,0.0312,0.0226,0.0073,-0.009,-0.0068,-0.0229,-0.0263,-0.0208,-0.0208,-0.0225,-0.0225,-0.021,-0.0209,-0.0209,-0.0208,0,0.0118,0.0149,0.0228,0.0293,0.032,0.0379,0.0475,0.0544,0.0567,0.0662,0.0665,0.0629,0.0516,0.0322,0.013,-0.0024,-0.0191,-0.026,-0.0191,-0.0215,-0.0339,-0.0335,-0.0395,-0.0397,-0.0398,-0.0399,-0.04,0,0.0145,0.0193,0.0294,0.0356,0.0394,0.0478,0.0554,0.0599,0.0691,0.076,0.0826,0.0743,0.0736,0.0434,0.0143,-0.0137,-0.0197,-0.0307,-0.0324,-0.033,-0.0356,-0.035,-0.0345,-0.0286,-0.0286,-0.0286,-0.0286,0,0.0206,0.0247,0.0325,0.0454,0.0544,0.0643,0.0753,0.0845,0.0913,0.1015,0.1125,0.1122,0.0834,0.0581,0.0161,-0.0031,-0.0261,-0.0317,-0.0327,-0.0249,-0.0234,-0.0258,-0.0255,-0.0286,-0.0286,-0.0286,-0.0286,-0.0286,0.0259,0.0342,0.0457,0.0582,0.0679,0.0815,0.0921,0.1084,0.1258,0.1434,0.1351,0.1362,0.1005,0.0523,0.0157,-0.0242,-0.0228,-0.0378,-0.0375,-0.0372,-0.0347,-0.0336,-0.0403,-0.0403,-0.0404,-0.0404,-0.0405,0,0.0375,0.0458,0.0578,0.0734,0.089,0.0875,0.1068,0.1246,0.1512,0.1607,0.17,0.1391,0.1039,0.0613,0.0048,-0.0298,-0.0308,-0.0431,-0.0365,-0.0362,-0.036,-0.0333,-0.0386,-0.0387,-0.0388,-0.0389,0,0,0.0438,0.0616,0.0694,0.0936,0.1005,0.1242,0.1361,0.1597,0.1754,0.1943,0.1905,0.1731,0.1188,0.0768,0.0289,-0.0045,-0.0116,-0.0108,-0.008,0.0061,0.0067,-0.0286,-0.0235,0,0,0,0,0]}],[{"header":{"parameterUnit":"m.s-1","parameterCategory":2,"la1":30.2991,"la2":30.254,"lo1":-89.0895,"lo2":-89.0444,"dy":0.0017,"dx":0.0017,"nx":28,"ny":28,"refTime":"2025-03-19T09:00:00:Z","depth":"4","parameterNumber":2,"parameterNumberName":"U-component_of_CURRENTS"},"data":[0,0,0,0,0,0,0,0,0,0,0,0,0,0,0,0,0,0,0,0,0,0,0,0,0,0,0,0,0,0,0,0,0,0,0,0,0,0,0,0,0,0,0,0,0,0,0,0,0,0,0,0,0,0,0,0,0,0,0.1113,0.1114,0,0.1194,0.1195,0.1196,0.1235,0.1236,0.1236,0.1236,0.1279,0.128,0.1281,0,0,0,0,0,0,0,0,0,0,0,0,0,0.0998,0.1,0.1113,0.1114,0.1115,0.1194,0.1195,0.1196,0.1235,0.1236,0.1236,0.1236,0.1279,0.128,0.1281,0,0,0,0,0,0,0,0,0,0,0,0,0,0.1058,0.1,0.1113,0.1147,0.1151,0.1194,0.1195,0.1196,0.1235,0.1236,0.1236,0.1236,0.1279,0.128,0.1281,0.128,0,0,0.1285,0.1286,0,0,0,0,0,0,0,0,0.1054,0.1061,0.1141,0.1145,0.115,0.1208,0.1171,0.1223,0.1235,0.12,0.1236,0.1237,0.1254,0.1257,0.1267,0.1282,0.1284,0.1285,0.1286,0.1287,0.1287,0,0,0,0,0,0,0,0.105,0.1058,0.1142,0.1142,0.1148,0.1161,0.117,0.1181,0.122,0.1203,0.1207,0.1221,0.1255,0.1266,0.1268,0.1285,0.1285,0.1286,0.1287,0.1288,0.1395,0.1397,0,0,0,0,0,0,0.1046,0.1054,0.1139,0.1144,0.1106,0.1163,0.1172,0.1186,0.1221,0.1228,0.1221,0.1223,0.1263,0.1267,0.127,0.136,0.1287,0.1288,0.1288,0.1393,0.1396,0.1398,0,0,0,0,0,0,0.1043,0.1053,0.1136,0.1104,0.1116,0.1165,0.118,0.1188,0.1229,0.1235,0.1241,0.1258,0.1264,0.1268,0.1318,0.1359,0.1288,0.129,0.1391,0.1394,0.1397,0.1483,0,0,0,0,0,0,0.104,0.1051,0.1071,0.1104,0.1118,0.1183,0.118,0.1189,0.1237,0.1241,0.1269,0.1272,0.1265,0.1316,0.1319,0.1359,0.1291,0.1388,0.1392,0.1396,0.1478,0.1489,0.1498,0,0,0,0,0,0.1035,0.1056,0.1071,0.1083,0.1139,0.1185,0.1194,0.1227,0.1239,0.1265,0.1291,0.1272,0.1342,0.1319,0.1322,0.1363,0.1386,0.1391,0.1396,0.1473,0.1487,0.1498,0,0,0,0,0,0,0.1018,0.1064,0.1081,0.1116,0.1159,0.1193,0.1224,0.1246,0.1287,0.13,0.13,0.1305,0.1364,0.1353,0.1327,0.1407,0.1361,0.1366,0.1419,0.1432,0.1442,0.1445,0.1292,0,0,0,0,0,0.1023,0.1053,0.1098,0.113,0.1154,0.1195,0.1223,0.125,0.1286,0.1306,0.133,0.1354,0.1381,0.1398,0.1418,0.146,0.1461,0.1489,0.1499,0.1508,0.1514,0.1558,0.1573,0.1413,0.1413,0.1413,0,0,0.1026,0.1057,0.1074,0.113,0.1165,0.1208,0.1214,0.1269,0.1312,0.1303,0.1374,0.1394,0.1402,0.1455,0.1479,0.1454,0.1557,0.1514,0.1521,0.1522,0.1564,0.158,0.1594,0.1417,0.1416,0.1415,0,0,0.1041,0.1076,0.1106,0.1146,0.121,0.1238,0.1262,0.1321,0.1357,0.1423,0.1431,0.148,0.1521,0.1539,0.1548,0.1626,0.1613,0.1636,0.169,0.1733,0.1747,0.1758,0.179,0.1804,0.1638,0.1638,0.1638,0,0.1046,0.1087,0.1124,0.1165,0.1204,0.1255,0.13,0.1345,0.1416,0.1453,0.1459,0.155,0.1559,0.162,0.1652,0.165,0.167,0.1641,0.1747,0.1758,0.1769,0.1798,0.1812,0.1643,0.1642,0.1642,0.1641,0,0.1077,0.1123,0.1148,0.1215,0.126,0.1311,0.1374,0.1434,0.1485,0.1529,0.162,0.1647,0.1699,0.1714,0.1709,0.1792,0.1782,0.1757,0.1713,0.179,0.1816,0.183,0.165,0.1648,0.1647,0.1645,0,0,0.1059,0.115,0.1163,0.1203,0.1293,0.1332,0.1413,0.1496,0.1561,0.1635,0.1718,0.1776,0.1806,0.182,0.183,0.1869,0.1964,0.1854,0.1854,0.1883,0.2067,0.1939,0.194,0.1966,0.1968,0.197,0.2059,0,0.1078,0.115,0.1196,0.1279,0.1323,0.1395,0.1466,0.155,0.1627,0.1723,0.1776,0.1861,0.1842,0.1889,0.1927,0.1964,0.2002,0.1942,0.199,0.1992,0.1866,0.1952,0.1978,0.2069,0.2072,0.2074,0.2075,0,0.1093,0.1143,0.1216,0.1316,0.1344,0.1404,0.1528,0.1601,0.1732,0.1798,0.1889,0.1941,0.2034,0.2002,0.2097,0.2067,0.2077,0.209,0.2093,0.1949,0.1887,0.1974,0.2098,0.2097,0.2095,0.2093,0.2092,0,0.1053,0.1156,0.1214,0.1249,0.1369,0.1426,0.15,0.1628,0.1709,0.1862,0.1947,0.2043,0.2128,0.2158,0.2197,0.2165,0.2289,0.2239,0.2127,0.2118,0.2166,0.2153,0.2295,0.2295,0.2295,0.2295,0.2294,0,0.1043,0.1095,0.1207,0.1239,0.1326,0.1418,0.1528,0.162,0.177,0.1871,0.199,0.2081,0.2178,0.2257,0.2249,0.2239,0.2332,0.2154,0.2139,0.2202,0.2191,0.2176,0.2161,0.2298,0.2297,0.2296,0.2296,0,0.0988,0.1061,0.1136,0.1263,0.1309,0.1374,0.1537,0.1615,0.1773,0.1914,0.1976,0.2156,0.2254,0.2319,0.239,0.2307,0.2303,0.2268,0.2356,0.234,0.2088,0.2076,0.2149,0.2145,0.2142,0.2139,0.2137,0,0.0962,0.0995,0.1132,0.1179,0.1242,0.1354,0.143,0.1597,0.1683,0.1931,0.1988,0.2168,0.2257,0.2268,0.2328,0.2319,0.2274,0.2257,0.2144,0.2098,0.2077,0.207,0.2063,0.2132,0.2131,0.213,0.213,0,0.0905,0.0964,0.1021,0.1116,0.1201,0.1287,0.1411,0.1467,0.1665,0.1834,0.1961,0.203,0.2146,0.219,0.2218,0.2191,0.226,0.2223,0.2228,0.2121,0.2079,0.2059,0.2056,0.2119,0.212,0.2121,0.2122,0,0.086,0.0877,0.0953,0.1031,0.1127,0.1182,0.1269,0.138,0.1488,0.1761,0.1796,0.1976,0.2133,0.2126,0.2141,0.2126,0.2067,0.1968,0.1984,0.1997,0.1902,0.1824,0.1788,0,0,0,0,0,0.0805,0.0805,0.0861,0.0928,0.1022,0.1072,0.1233,0.1328,0.1526,0.1571,0.1681,0.1775,0.1848,0.1936,0.1884,0.2041,0.2053,0.1968,0.1941,0.2059,0.2072,0.1971,0,0,0,0,0,0,0.0759,0.0798,0.0812,0.0822,0.0846,0.093,0.1022,0.1165,0.1204,0.142,0.1473,0.1636,0.173,0.1842,0.1835,0.1857,0.1797,0.2076,0.207,0.2052,0.2064,0.2074,0.1974,0,0,0,0,0]},{"header":{"parameterUnit":"m.s-1","parameterCategory":2,"la1":30.2991,"la2":30.254,"lo1":-89.0895,"lo2":-89.0444,"dy":0.0017,"dx":0.0017,"nx":28,"ny":28,"refTime":"2025-03-19T09:00:00:Z","depth":"4","parameterNumber":3,"parameterNumberName":"V-component_of_CURRENTS"},"data":[0,0,0,0,0,0,0,0,0,0,0,0,0,0,0,0,0,0,0,0,0,0,0,0,0,0,0,0,0,0,0,0,0,0,0,0,0,0,0,0,0,0,0,0,0,0,0,0,0,0,0,0,0,0,0,0,0,0,0.0516,0.0516,0,0.0475,0.0475,0.0474,0.0453,0.0453,0.0453,0.0453,0.0435,0.0435,0.0434,0,0,0,0,0,0,0,0,0,0,0,0,0,0.0531,0.0531,0.0516,0.0516,0.0515,0.0475,0.0475,0.0474,0.0453,0.0453,0.0453,0.0453,0.0435,0.0435,0.0434,0,0,0,0,0,0,0,0,0,0,0,0,0,0.0511,0.0531,0.0516,0.05,0.0498,0.0475,0.0475,0.0474,0.0454,0.0453,0.0453,0.0453,0.0435,0.0435,0.0434,0.0431,0,0,0.0432,0.0432,0,0,0,0,0,0,0,0,0.0512,0.0511,0.0503,0.0501,0.0499,0.0469,0.0473,0.0461,0.0454,0.0471,0.0453,0.0453,0.0448,0.0447,0.0439,0.043,0.0429,0.0432,0.0432,0.0431,0.0431,0,0,0,0,0,0,0,0.0514,0.0512,0.05,0.0502,0.05,0.0479,0.0476,0.047,0.0461,0.0469,0.0467,0.0463,0.0448,0.044,0.0439,0.0429,0.0432,0.0431,0.0431,0.0431,0.0401,0.04,0,0,0,0,0,0,0.0521,0.0514,0.0502,0.0499,0.0505,0.0479,0.0476,0.0479,0.046,0.0457,0.0463,0.0462,0.0441,0.0439,0.0438,0.0434,0.0431,0.0431,0.043,0.0401,0.0401,0.04,0,0,0,0,0,0,0.0522,0.0521,0.0503,0.0505,0.0501,0.0479,0.0482,0.0478,0.0472,0.0455,0.0453,0.0461,0.0441,0.0439,0.043,0.0433,0.043,0.043,0.0402,0.0401,0.04,0.0425,0,0,0,0,0,0,0.0522,0.0521,0.053,0.0506,0.0501,0.0496,0.0482,0.0477,0.0469,0.0467,0.0453,0.0451,0.0441,0.0431,0.043,0.0432,0.0429,0.0402,0.0401,0.0401,0.0425,0.0426,0.0426,0,0,0,0,0,0.0523,0.0539,0.0531,0.053,0.0513,0.0496,0.0492,0.0476,0.0469,0.047,0.0454,0.0451,0.0425,0.0431,0.0429,0.0431,0.0402,0.0401,0.0401,0.0425,0.0426,0.0426,0,0,0,0,0,0,0.0552,0.0537,0.0528,0.054,0.052,0.0493,0.0496,0.0479,0.0467,0.0468,0.045,0.0446,0.0438,0.0429,0.0435,0.0418,0.0412,0.0411,0.0431,0.0432,0.0432,0.0451,0.0429,0,0,0,0,0,0.0562,0.0571,0.0545,0.0555,0.0548,0.0521,0.0514,0.05,0.0482,0.0477,0.0462,0.0446,0.0432,0.0429,0.0415,0.0411,0.0387,0.0408,0.0409,0.041,0.0422,0.0379,0.0378,0.0397,0.0397,0.0397,0,0,0.0578,0.0569,0.0576,0.0561,0.0548,0.0544,0.0517,0.051,0.0506,0.0478,0.0474,0.045,0.043,0.0421,0.0416,0.0416,0.0388,0.0409,0.041,0.0421,0.0378,0.0376,0.0375,0.0397,0.0397,0.0397,0,0,0.0609,0.0604,0.0618,0.0605,0.0585,0.0567,0.0566,0.0537,0.0525,0.0512,0.0488,0.0465,0.0448,0.0429,0.0419,0.0416,0.0391,0.041,0.0432,0.0391,0.0389,0.0388,0.0342,0.0336,0.0412,0.0412,0.0413,0,0.0627,0.0641,0.0619,0.0622,0.062,0.058,0.059,0.057,0.054,0.0535,0.0517,0.0473,0.0452,0.0438,0.0433,0.0419,0.0389,0.0433,0.0393,0.0391,0.0388,0.0342,0.0335,0.0414,0.0413,0.0413,0.0413,0,0.066,0.0672,0.0679,0.0673,0.0666,0.0668,0.0636,0.0625,0.0602,0.0578,0.0553,0.0509,0.0486,0.0467,0.0451,0.0427,0.0407,0.0397,0.0394,0.0388,0.0339,0.0331,0.0415,0.0415,0.0414,0.0414,0,0,0.0699,0.0704,0.0707,0.0719,0.0695,0.0696,0.0689,0.0674,0.0677,0.0627,0.062,0.0572,0.054,0.0525,0.0488,0.0449,0.0397,0.0421,0.0418,0.0382,0.0298,0.0281,0.0271,0.0377,0.0377,0.0376,0.0266,0,0.0733,0.0766,0.0752,0.0782,0.0796,0.0763,0.0766,0.0745,0.0715,0.0695,0.0632,0.0611,0.0563,0.0549,0.05,0.0427,0.038,0.0428,0.0305,0.0302,0.0292,0.0263,0.0373,0.026,0.0258,0.0257,0.0256,0,0.0767,0.0786,0.0831,0.0848,0.0852,0.0865,0.0868,0.0862,0.0819,0.079,0.0742,0.0687,0.0621,0.058,0.0446,0.0478,0.0395,0.033,0.0324,0.0299,0.0271,0.0269,0.0242,0.0243,0.0244,0.0245,0.0246,0,0.0814,0.084,0.0887,0.0891,0.0902,0.0922,0.0927,0.0902,0.0908,0.0852,0.0838,0.0743,0.0697,0.0582,0.0439,0.0442,0.0285,0.0271,0.0174,0.0171,0.0211,0.0214,0.0177,0.0178,0.0178,0.0178,0.0178,0,0.0851,0.0889,0.0921,0.0946,0.1003,0.0987,0.1036,0.1014,0.0996,0.1003,0.0898,0.0865,0.0696,0.0582,0.0452,0.0286,0.029,0.0174,0.0142,0.0221,0.0227,0.0204,0.0209,0.0174,0.0175,0.0176,0.0176,0,0.0895,0.0914,0.0975,0.1013,0.1031,0.1077,0.1117,0.1145,0.1109,0.1109,0.1092,0.0956,0.0795,0.0618,0.0419,0.0309,0.0152,0.0093,0.0185,0.0161,0.0061,0.0068,-0.0027,-0.0029,-0.003,-0.0031,-0.0032,0,0.0918,0.0959,0.1037,0.1078,0.1104,0.1167,0.1211,0.1207,0.1226,0.1161,0.1158,0.1006,0.0893,0.0594,0.0404,0.0141,0.0108,0.0025,0.0044,0.0061,0.0039,0.0049,0.0057,-0.0034,-0.0035,-0.0035,-0.0035,0,0.0964,0.1007,0.1058,0.1149,0.1214,0.1279,0.1332,0.135,0.1334,0.1309,0.1198,0.1023,0.0834,0.0591,0.0381,0.0198,0.0078,0.001,0.0012,0.003,0.0052,0.0033,0.0043,-0.004,-0.0039,-0.0039,-0.0038,0,0.1005,0.1056,0.1133,0.1204,0.1289,0.135,0.1378,0.1381,0.139,0.1306,0.127,0.1047,0.0919,0.0619,0.0431,0.0239,0.0193,0.014,0.0134,0.0136,0.0215,0.0269,0.0214,0,0,0,0,0,0.1031,0.109,0.1171,0.1251,0.1335,0.1386,0.1436,0.145,0.1436,0.1369,0.1315,0.1131,0.0813,0.0671,0.0477,0.0411,0.0167,0.0177,0.0106,-0.0065,-0.0059,0.0004,0,0,0,0,0,0,0.1049,0.1139,0.1177,0.1273,0.1335,0.1432,0.147,0.1463,0.1414,0.1362,0.1195,0.1095,0.079,0.0932,0.048,0.0419,0.0348,0.0027,0.0023,-0.0068,-0.0063,-0.0059,0.0008,0,0,0,0,0]}]]